Tracking 28052 objects as of 22-Sep-2023
HD Live streaming from Space Station
objects crossing your sky now

STARLINK-3141

Track STARLINK-3141 now!
10-day predictions
STARLINK-3141 is classified as:


NORAD ID: 49459
Int'l Code: 2021-104BD
Perigee: 545.9 km
Apogee: 548.0 km
Inclination: 53.2 °
Period: 95.4 minutes
Semi major axis: 6917 km
RCS: Unknown
Launch date: November 13, 2021
Source: United States (US)
Launch site: AIR FORCE EASTERN TEST RANGE (AFETR)
Your satellite tracking list
Your tracking list is empty




NASA's NSSDC Master Catalog

Two Line Element Set (TLE):
1 49459U 21104BD  23265.11379608  .00002383  00000-0  16783-3 0  9996
2 49459  53.2159 297.4762 0001518  76.8771 283.2390 15.08830325104047
Source of the keplerian elements: AFSPC